TimeEDT,TemperatureF,Dew PointF,Humidity,Sea Level PressureIn,VisibilityMPH,Wind Direction,Wind SpeedMPH,Gust SpeedMPH,PrecipitationIn,Events,Conditions,WindDirDegrees,DateUTC
12:13 AM,60.8,59.0,94,30.04,10.0,North,4.6,-,N/A,,Overcast,360,2013-07-26 04:13:00
12:22 AM,60.8,57.2,88,30.04,10.0,North,6.9,-,N/A,,Overcast,350,2013-07-26 04:22:00
12:53 AM,61.0,59.0,93,30.04,10.0,Variable,3.5,-,N/A,,Overcast,0,2013-07-26 04:53:00
1:43 AM,60.8,59.0,94,30.03,10.0,NNW,4.6,-,0.00,Rain,Light Rain,340,2013-07-26 05:43:00
1:53 AM,61.0,59.0,93,30.02,10.0,North,3.5,-,0.01,Rain,Light Rain,350,2013-07-26 05:53:00
2:30 AM,60.8,59.0,94,30.02,10.0,North,5.8,-,0.00,Rain,Light Rain,350,2013-07-26 06:30:00
2:53 AM,62.1,59.0,90,30.01,10.0,Variable,4.6,-,0.01,,Overcast,0,2013-07-26 06:53:00
3:21 AM,62.6,59.0,88,30.00,10.0,North,5.8,-,N/A,,Overcast,360,2013-07-26 07:21:00
3:53 AM,62.1,59.0,90,29.99,4.0,Variable,4.6,-,0.02,Rain,Light Rain,0,2013-07-26 07:53:00
4:01 AM,60.8,59.0,94,29.99,3.0,North,4.6,-,0.02,Rain,Light Rain,360,2013-07-26 08:01:00
4:35 AM,60.8,59.0,94,29.99,2.5,Variable,4.6,-,0.13,Rain,Rain,0,2013-07-26 08:35:00
4:41 AM,60.8,59.0,94,29.99,3.0,Calm,Calm,-,0.14,Rain,Light Rain,0,2013-07-26 08:41:00
4:53 AM,61.0,59.0,93,29.99,5.0,North,3.5,-,0.16,Rain,Light Rain,350,2013-07-26 08:53:00
5:05 AM,60.8,59.0,94,29.99,6.0,North,4.6,-,0.02,Rain,Light Rain,350,2013-07-26 09:05:00
5:53 AM,62.1,60.1,93,29.98,6.0,North,3.5,-,0.06,Rain,Light Rain,360,2013-07-26 09:53:00
6:53 AM,62.1,60.1,93,29.98,2.5,North,6.9,-,0.06,Rain,Light Rain,360,2013-07-26 10:53:00
7:07 AM,62.6,60.8,94,29.98,3.0,North,5.8,-,0.02,Rain,Light Rain,10,2013-07-26 11:07:00
7:19 AM,62.6,60.8,94,29.97,3.0,North,5.8,-,0.03,Rain,Light Rain,360,2013-07-26 11:19:00
7:53 AM,63.0,60.1,90,29.97,4.0,North,5.8,-,0.07,Rain,Light Rain,350,2013-07-26 11:53:00
8:53 AM,63.0,61.0,93,29.97,5.0,North,6.9,-,0.01,Rain,Light Rain,10,2013-07-26 12:53:00
9:53 AM,64.0,61.0,90,29.96,5.0,North,8.1,18.4,0.02,,Overcast,360,2013-07-26 13:53:00
10:53 AM,64.0,62.1,93,29.95,5.0,NNW,8.1,-,0.00,,Overcast,330,2013-07-26 14:53:00
11:19 AM,64.4,62.6,94,29.95,2.0,NNW,5.8,-,0.02,Rain,Light Rain,330,2013-07-26 15:19:00
11:33 AM,64.4,62.6,94,29.95,3.0,Variable,5.8,-,0.03,Rain,Light Rain,0,2013-07-26 15:33:00
11:53 AM,64.9,62.1,90,29.95,2.0,NNW,6.9,-,0.04,Rain,Light Rain,340,2013-07-26 15:53:00
12:00 PM,64.4,62.6,94,29.95,4.0,Variable,4.6,-,0.00,Rain,Light Rain,0,2013-07-26 16:00:00
12:07 PM,64.4,62.6,94,29.95,2.0,North,6.9,-,0.00,Rain,Light Rain,350,2013-07-26 16:07:00
12:53 PM,66.9,64.0,90,29.94,6.0,NW,9.2,-,0.00,,Overcast,320,2013-07-26 16:53:00
1:25 PM,66.2,64.4,94,29.93,10.0,NNW,8.1,-,N/A,,Overcast,330,2013-07-26 17:25:00
1:53 PM,69.1,64.0,84,29.93,10.0,NW,8.1,-,N/A,,Overcast,320,2013-07-26 17:53:00
2:00 PM,69.8,64.4,83,29.93,10.0,NW,10.4,17.3,N/A,,Overcast,310,2013-07-26 18:00:00
2:07 PM,69.8,64.4,83,29.93,10.0,NW,8.1,17.3,N/A,,Overcast,310,2013-07-26 18:07:00
2:53 PM,69.1,64.0,84,29.94,10.0,NW,8.1,17.3,N/A,,Overcast,320,2013-07-26 18:53:00
3:38 PM,69.8,64.4,83,29.94,9.0,NW,8.1,-,0.01,Rain,Light Rain,310,2013-07-26 19:38:00
3:53 PM,70.0,64.0,81,29.94,10.0,NW,11.5,-,0.01,,Overcast,310,2013-07-26 19:53:00
4:00 PM,69.8,64.4,83,29.94,10.0,NW,9.2,-,N/A,,Overcast,320,2013-07-26 20:00:00
4:07 PM,69.8,64.4,83,29.94,10.0,NW,12.7,17.3,N/A,,Overcast,310,2013-07-26 20:07:00
4:53 PM,71.1,64.0,78,29.94,10.0,NW,8.1,17.3,0.00,Rain,Light Rain,310,2013-07-26 20:53:00
5:00 PM,71.6,64.4,78,29.94,10.0,NW,10.4,-,N/A,,Overcast,310,2013-07-26 21:00:00
5:53 PM,72.0,64.9,78,29.95,10.0,WNW,4.6,-,N/A,,Overcast,290,2013-07-26 21:53:00
6:53 PM,71.1,64.9,81,29.96,10.0,Calm,Calm,-,N/A,,Overcast,0,2013-07-26 22:53:00
7:53 PM,69.1,64.9,87,29.96,10.0,West,3.5,-,0.04,Rain,Light Rain,260,2013-07-26 23:53:00
8:53 PM,66.9,64.0,90,29.98,10.0,SSW,3.5,-,0.00,,Scattered Clouds,200,2013-07-27 00:53:00
9:53 PM,66.9,63.0,87,29.99,10.0,Calm,Calm,-,N/A,,Clear,0,2013-07-27 01:53:00
10:53 PM,66.0,62.1,87,30.00,10.0,Calm,Calm,-,N/A,,Clear,0,2013-07-27 02:53:00
11:53 PM,64.0,61.0,90,30.00,10.0,WSW,5.8,-,N/A,,Clear,250,2013-07-27 03:53:00